Starlink 31903

operational
NORAD ID: 59845 Int'l Des: 2024-097 Owner: SPXS Country: US Constellation: starlink
LEOCIRCULAR

关于 Starlink 31903

正在加载描述...

实时位置

正在加载3D地球...

即将过境

高度历史

Altitude vs Time

uPlot chart will show altitude changes over time

两行轨道根数

1 59845U 24097L 25305.17918615 -.00001521 00000-0 -45803-4 0 9991
2 59845 43.0033 273.1170 0000910 252.6978 107.3775 15.27564544 82346
Epoch: Nov 1, 2025 • Age: 27 hours

当前状态

高度 482.4 km
速度 7.63 km/s
星下点 4.22°N, 75.73°W
发射日期 May 23, 2024
运行时间 1.4 years
类型 internet

技术详情

分类 Payload
质量 730.00 kg
干质量 700.00 kg
总质量 730.00 kg
长度 0.30 m
直径 4.10 m
跨度 29.00 m
形状 Box + pan
制造商 SPXS
平台类型 Starlink V2M
阶段状态 In Orbit
所有者/国家 SPXS/US

大型星座

Loading constellations...